Flag for Germany Weather past 2 weeks in Schwäbisch Hall, Baden-Württemberg, Germany

39 °F

Drizzle. Overcast.

Feels Like: 35 °F
Forecast: 35 / 47 °F
Wind: 6 mph from West

Location: Oehringen

Current Time: Nov 28, 2015 at 4:52:20 PM

Latest Report: Nov 28, 2015 at 4:00 PM

Visibility: 13 mi

Pressure: 30.10 "Hg

Humidity: 87%

Dew point: 36 °F

Location of Schwäbisch HallLocation

Historic Weather in Schwäbisch Hall — Graph


Schwäbisch Hall temperature yesterday

Maximum temperature yesterday: 36 °F (at 11:00 AM)
Minimum temperature yesterday: 28 °F (at 6:00 AM)
Average temperature yesterday: 33 °F

Past Weeks' High & Low Weather Summary

High60 °F (Nov 18, 2:00 AM)99% (Nov 20, 4:00 AM)30.44 "Hg (Nov 20, 4:00 AM)
Low28 °F (Nov 27, 6:00 AM)47% (Nov 16, 12:00 PM)29.41 "Hg (Nov 21, 2:00 PM)
Average44 °F82%30.01 "Hg
* Reported Nov 13 4:00 PM — Nov 28 4:00 PM, Schwäbisch Hall, Weather by CustomWeather, © 2015

Note: Actual official high and low records may vary slightly from our data, if they occured in-between our weather recording intervals... More about our weather records


Schwäbisch Hall weather history for previous 24 hours

Time TempWeatherWind HumidityBarometerVisibility
4:00 PM
Sat, Nov 28
39 °FDrizzle. Overcast.6 mph87%30.10 "Hg12 mi
3:00 PM39 °FOvercast.7 mph88%30.07 "Hg11 mi
2:00 PM39 °FLow clouds.6 mph92%30.05 "Hg7 mi
1:00 PM37 °FDrizzle. Low clouds.3 mph94%30.03 "Hg4 mi
12:00 PM35 °FLow clouds.6 mph95%30.01 "Hg3 mi
11:00 AM34 °FLight freezing rain. Low clouds.5 mph95%29.99 "Hg2 mi
10:00 AM33 °FSnow. Low clouds.3 mph96%29.96 "Hg1 mi
9:00 AM33 °FSnow. Low clouds.3 mph95%29.94 "Hg1 mi
7:00 AM32 °FSnow. Ice fog.2 mph91%29.91 "Hg1 mi
6:00 AM32 °FLight snow. Overcast.1 mph86%29.92 "Hg5 mi
5:00 AM30 °FOvercast.1 mph91%29.93 "Hg3 mi
4:00 AM28 °FLow clouds.1 mph97%29.96 "Hg1 mi
3:00 AM29 °FFog.2 mph94%29.98 "Hg2 mi
1:00 AM29 °FLow clouds.2 mph98%30.01 "Hg0 mi
11:00 PM
Fri, Nov 27
31 °FFog.1 mph95%30.02 "Hg2 mi
10:00 PM32 °FFog.2 mph92%30.03 "Hg2 mi
9:00 PM33 °FFog.2 mph91%30.04 "Hg3 mi
8:00 PM33 °FFog.1 mph91%30.06 "Hg3 mi
7:00 PM33 °FFog.2 mph90%30.06 "Hg3 mi
6:00 PM33 °FFog.2 mph89%30.07 "Hg4 mi
5:00 PM34 °FFog.2 mph88%30.07 "Hg4 mi
4:00 PM34 °FFog.3 mph87%30.08 "Hg4 mi
Weather by CustomWeather, © 2015

See weather overviewHow to use our weather pages